CDT,Max TemperatureF,Mean TemperatureF,Min TemperatureF,Max Dew PointF,MeanDew PointF,Min DewpointF,Max Humidity, Mean Humidity, Min Humidity, Max Sea Level PressureIn, Mean Sea Level PressureIn, Min Sea Level PressureIn, Max VisibilityMiles, Mean VisibilityMiles, Min VisibilityMiles, Max Wind SpeedMPH, Mean Wind SpeedMPH, Max Gust SpeedMPH,PrecipitationIn, CloudCover, Events, WindDirDegrees
2013-5-1,49,41,32,36,32,28,96,87,50,30.61,30.33,29.96,10,4,0,33,24,38,0.09,8,Fog-Rain-Snow,12
2013-5-2,54,43,32,31,27,19,93,65,27,30.73,30.61,30.48,10,9,2,18,13,26,T,6,Snow,341
2013-5-3,61,43,25,33,25,20,92,55,21,30.47,30.26,30.11,10,10,10,20,7,26,0.00,0,,341
2013-5-4,62,45,27,23,20,16,75,45,19,30.25,30.17,30.13,10,10,10,26,14,32,0.00,0,,355
2013-5-5,66,46,25,25,21,16,85,42,16,30.29,30.20,30.12,10,10,10,16,8,22,0.00,0,,337
2013-5-6,73,54,34,42,33,24,79,47,25,30.16,30.08,29.99,10,10,10,17,5,25,0.00,1,,134
2013-5-7,70,61,51,54,50,36,93,74,54,30.01,29.94,29.83,10,9,3,21,11,28,0.08,6,Rain,115
2013-5-8,76,63,49,52,49,42,97,71,32,29.97,29.92,29.86,10,8,2,18,8,23,0.10,2,Rain-Thunderstorm,30
2013-5-9,65,55,44,52,48,44,93,75,54,30.13,30.03,29.93,10,9,7,23,11,25,0.01,5,,6
2013-5-10,75,58,41,49,44,39,100,68,33,30.17,30.12,30.06,10,8,2,17,8,30,0.00,4,,279
2013-5-11,69,59,48,45,32,21,74,42,21,30.38,30.26,30.16,10,10,10,20,12,26,0.00,2,,19
2013-5-12,80,59,38,46,38,28,73,47,25,30.23,30.10,30.01,10,10,10,14,6,,0.00,0,,113
2013-5-13,95,71,47,47,44,38,89,46,15,30.02,29.94,29.84,10,10,8,13,6,16,0.00,0,,204
2013-5-14,100,77,53,47,42,37,58,29,12,29.82,29.74,29.64,10,10,10,14,9,23,0.00,0,Thunderstorm,222
2013-5-15,86,74,62,53,45,38,63,39,26,29.82,29.77,29.71,10,10,10,28,13,33,0.00,0,,61
2013-5-16,85,71,56,55,53,48,87,67,31,29.85,29.78,29.71,10,9,4,24,8,38,0.04,2,Rain-Thunderstorm,132
2013-5-17,88,70,52,61,55,50,90,62,29,29.85,29.78,29.71,10,10,10,21,7,29,0.00,0,,148
2013-5-18,83,71,58,65,61,48,90,70,47,29.83,29.71,29.55,10,7,4,22,12,28,0.00,5,Thunderstorm,122
2013-5-19,75,66,57,54,50,44,84,65,43,29.72,29.65,29.60,10,9,2,29,12,39,0.06,4,Rain-Thunderstorm,320
2013-5-20,69,61,53,52,47,42,88,67,42,29.81,29.73,29.66,10,10,10,29,17,43,T,6,,290
2013-5-21,67,57,46,49,43,40,86,64,39,29.88,29.83,29.77,10,10,6,28,16,38,0.03,5,Rain,312
2013-5-22,75,61,46,46,44,42,89,66,34,30.06,29.92,29.87,10,10,10,17,10,22,0.00,2,,327
2013-5-23,71,59,46,49,46,41,87,68,44,30.19,30.13,30.07,10,10,10,18,11,26,T,4,,71
2013-5-24,84,70,56,66,56,49,88,70,41,30.14,30.02,29.85,10,9,2,32,18,47,0.29,6,Rain-Thunderstorm,139
2013-5-25,92,77,61,66,58,43,94,63,25,30.01,29.87,29.73,10,8,4,40,20,51,0.05,3,Rain-Thunderstorm,133
2013-5-26,97,82,66,63,58,46,87,54,18,29.80,29.71,29.62,10,10,10,22,14,30,0.00,0,,179
2013-5-27,78,67,56,66,61,49,100,79,52,29.77,29.67,29.57,10,8,0,25,10,30,0.00,4,Fog-Thunderstorm,63
2013-5-28,85,71,56,66,57,49,90,71,29,29.77,29.66,29.52,10,8,4,20,9,30,0.00,3,,66
2013-5-29,88,72,55,62,56,52,94,75,37,29.61,29.48,29.28,10,8,2,31,13,46,0.35,5,Rain-Thunderstorm,72
2013-5-30,78,65,51,54,49,42,97,65,28,29.66,29.58,29.53,10,10,9,24,8,33,0.01,1,Thunderstorm,228
2013-5-31,79,63,46,48,41,30,93,50,17,29.83,29.73,29.68,10,10,10,31,14,38,0.00,0,,288